COMSATBW-2

Last updated on Thu Oct 30 2025 00:02:48 GMT+0000 (Coordinated Universal Time)

1 36582U 10021B 25302.25962001 .00000099 00000+0 00000+0 0 9991 2 36582 0.0781 84.5175 0003080 151.2729 268.7351 1.00272786 56646
UTC large
Height (km)
Speed (km/s)
/
Latitude / Longitude
Inclination (degrees)
Orbital Period (minutes)
Azimuth
Elevation
Range (km)
Doppler Factor

Next 0 passes for location: London (51.5072 / 0.1276)

Sorry there are no passes over London.